Regional Weather Roundup
Issued by NWS

Home | Current Version | Previous Version | Graphics & Text | Print | Product List | Glossary On
Versions: 1 2 3 4 5 6 7 8 9 10 11 12 13 14 15 16 17 18 19 20 21 22 23 24 25 26 27 28 29 30 31 32 33 34 35 36 37 38 39 40 41 42 43 44 45 46 47 48 49 50
000
ASUS45 KSLC 210510
RWRUT

UTAH REGIONAL WEATHER ROUNDUP
NATIONAL WEATHER SERVICE SALT LAKE CITY UT
1000 PM MST THU NOV 20 2014

UTZ001>011-023>025-210600-

NORTHERN UTAH

CITY           SKY/WX    TMP DP  RH WIND       PRES   REMARKS
BRIGHAM CITY   CLEAR     28  23  82 CALM      30.05S
HILL AFB       PTCLDY    35  23  62 E6        30.04R WCI  30
LOGAN          CLEAR     27  24  89 CALM      30.05
OGDEN          CLEAR     32  26  78 CALM      30.03S
PROVO AIRPORT  PTCLDY    27  19  74 CALM      30.05S
SALT LAKE CITY PTCLDY    33  28  81 CALM      30.04R
VERNAL         MOCLDY    31  13  47 NW3       30.06S
WENDOVER       MOCLDY    28  18  64 W3        30.04S
HEBER CITY     CLEAR     21  14  73 CALM      30.05R
WEST JORDAN    CLEAR     32  25  74 CALM      30.04S

$$

UTZ012>022-026-027-210600-

SOUTHERN/CENTRAL UTAH

CITY           SKY/WX    TMP DP  RH WIND       PRES   REMARKS
BLANDING       CLEAR     31  20  63 N6        30.14S WCI  25
BRYCE CANYON   PTCLDY    20  15  81 W5        30.07F WCI  13
CEDAR CITY     CLOUDY    37  23  56 E8        30.01R WCI  31
DELTA          MOCLDY    32  17  54 NE8       30.00F WCI  25
MILFORD        MOCLDY    36  23  59 W3        30.00S
MOAB/CYNLANDS  CLEAR     27   9  46 CALM      30.08S
PRICE          CLEAR     26  10  50 N7        30.08R WCI  18
ST GEORGE      CLEAR     48  12  23 CALM      30.00S
KANAB          MOCLDY    36  16  44 NE3       30.07S

$$

REGIONAL REPORTS     COLORADO/ARIZONA

CITY           SKY/WX    TMP DP  RH WIND       PRES   REMARKS
CRAIG, CO      CLOUDY    27  21  78 N3        30.07S
GRAND JUNCTION CLOUDY    35  23  61 CALM      30.08S
RIFLE          CLOUDY    30  20  66 CALM      30.10R
MONTROSE       CLOUDY    32  21  64 SE8       30.11S WCI  25
CORTEZ         CLOUDY    34  20  56 E7        30.08F WCI  28
PAGE, AZ       NOT AVBL
GRAND CANYON   MOCLDY    28  14  55 CALM      30.07F
KINGMAN        CLOUDY    47  21  35 SE6       29.99F
FLAGSTAFF      CLOUDY    29  16  58 CALM      30.10F

$$

REGIONAL REPORTS    NEVADA/IDAHO/WYOMING

CITY           SKY/WX    TMP DP  RH WIND       PRES   REMARKS
LAS VEGAS, NV  CLOUDY    57  20  23 S6        29.91S
ELY            MOCLDY    36  15  42 SW10      30.00R WCI  28
ELKO           MOCLDY    31  27  85 CALM      29.98S
POCATELLO, ID  CLEAR     26  25  96 CALM      30.05S
BURLEY         CLEAR     28  25  88 CALM      30.00F FOG
EVANSTON, WY   MOCLDY    30  16  56 SW7       30.04S WCI  23
ROCK SPRINGS   MOCLDY    31  18  58 SW10      30.03F WCI  22

$$



USA.gov is the U.S. government's official web portal to all federal, state and local government web resources and services.